Simultaneous Nadir Overpasses (SNOs) Predictions

Prediction of SNOs between NOAA-20 and METOP-B Satellite Orbit:

Table of predicted SNOs for the next 14.0 days since TLE Epoch: 5/28/2019
Index Date (NOAA-20) Time (NOAA-20) Lat,Lon (NOAA-20) SZA (NOAA-20 ) Date (METOP-B) Time (METOP-B) Lat,Lon (METOP-B) SZA (METOP-B ) Distance(km) Time Diff (sec)
1 06/11/2019 04:14:00 -73.59, -73.49 129.27 06/11/2019 04:15:06 -73.53, -70.38 129.50 98.03 66
2 06/11/2019 05:04:41 73.37, 94.34 50.48 06/11/2019 05:05:49 73.34, 96.52 50.33 69.47 68
3 06/11/2019 05:55:24 -73.30, -98.20 129.60 06/11/2019 05:56:33 -73.26, -96.33 129.74 59.97 69
4 06/11/2019 06:46:05 73.07, 69.62 50.15 06/11/2019 06:47:17 73.02, 70.47 50.04 28.41 72
5 06/11/2019 07:36:48 -73.01,-122.93 129.93 06/11/2019 07:38:01 -72.94,-122.37 130.04 19.76 73
6 06/11/2019 08:27:30 72.82, 44.77 49.87 06/11/2019 08:28:42 72.85, 44.77 49.88 2.31 72
7 06/11/2019 09:18:14 -72.81,-147.89 130.15 06/11/2019 09:19:25 -72.82,-147.96 130.15 2.46 71
8 06/11/2019 10:09:00 72.83, 19.38 49.87 06/11/2019 10:10:04 72.82, 19.38 49.85 0.77 64
9 06/11/2019 10:59:44 -72.82,-173.28 130.15 06/11/2019 11:00:47 -72.80,-173.34 130.18 2.99 63
10 06/11/2019 11:50:29 72.79, -5.91 49.82 06/11/2019 11:51:26 72.80, -6.00 49.83 3.56 57
11 06/11/2019 12:41:14 -72.83, 161.33 130.14 06/11/2019 12:42:08 -72.83, 161.38 130.15 1.62 54
12 06/11/2019 13:31:59 72.79, -31.29 49.82 06/11/2019 13:32:48 72.78, -31.38 49.81 3.07 49
13 06/11/2019 14:22:44 -72.83, 135.94 130.14 06/11/2019 14:23:30 -72.81, 136.00 130.18 3.06 46
14 06/11/2019 15:13:29 72.80, -56.68 49.83 06/11/2019 15:14:09 72.81, -56.66 49.83 1.68 40
15 06/11/2019 16:04:13 -72.79, 110.66 130.19 06/11/2019 16:04:52 -72.79, 110.61 130.20 1.54 39
16 06/11/2019 16:54:59 72.81, -82.07 49.83 06/11/2019 16:55:31 72.79, -82.04 49.81 1.87 32
17 06/11/2019 17:45:43 -72.79, 85.27 130.19 06/11/2019 17:46:14 -72.77, 85.23 130.22 3.23 31
18 06/11/2019 18:36:28 72.76,-107.35 49.78 06/11/2019 18:36:53 72.77,-107.42 49.78 2.50 25
19 06/11/2019 19:27:13 -72.80, 59.88 130.19 06/11/2019 19:27:35 -72.80, 59.95 130.20 2.32 22
20 06/11/2019 20:17:58 72.77,-132.74 49.78 06/11/2019 20:18:15 72.75,-132.81 49.76 2.89 17
21 06/11/2019 21:08:42 -72.76, 34.60 130.24 06/11/2019 21:08:57 -72.78, 34.57 130.22 2.48 15
22 06/11/2019 21:59:28 72.78,-158.13 49.78 06/11/2019 21:59:36 72.78,-158.08 49.78 1.69 8




NCC Satellite Simultaneous Nadir Overpasses (SNOs) Prediction Service
